Weather History for CYFC - July, 2014

Change the Weather History Date:

Friday, July 4, 2014

  Actual Average Record
Temperature  
Mean Temperature 75 °F -  
Max Temperature 84 °F 78 °F 88 °F (2013)
Min Temperature 66 °F 55 °F 48 °F (2007)
Cooling Degree Days 10    
Growing Degree Days 25 (Base 50)    
Moisture  
Dew Point 66 °F    
Average Humidity 79    
Maximum Humidity 94    
Minimum Humidity 48    
Precipitation  
Precipitation 0.00 in 0.11 in - ()
Sea Level Pressure  
Sea Level Pressure 29.93 in    
Wind  
Wind Speed 7 mph ()    
Max Wind Speed 12 mph    
Max Gust Speed 17 mph    
Visibility 9.1 miles    
Events Thunderstorm    
Averages and records for this station are not official NWS values.
T = Trace of Precipitation, MM = Missing Value Source: Averaged Metar Reports

Daily Weather History Graph

Daily Weather History Graph

Search for Another Location

Airport or City:

Trip Planner

Search our weather history database for the weather conditions in past years. The results will help you decide how hot, cold, wet, or windy it might be!

Date:

Astronomy

Jul. 04, 2014 Rise Set
Actual Time 5:41 AM ADT 9:19 PM ADT
Civil Twilight 5:03 AM ADT 9:57 PM ADT
Nautical Twilight 4:13 AM ADT 10:47 PM ADT
Astronomical Twilight 3:04 AM ADT 11:55 PM ADT
Moon 12:57 PM ADT (7/4) 12:18 AM ADT (7/4)
Length of Visible Light 16h 53m
Length of Day
15h 37m
Waxing Crescent, 41% of the Moon is Illuminated
Jul 4
Waxing Crescent
Jul 5
First Quarter
Jul 12
Full
Jul 18
Last Quarter
Jul 26
New

Hourly Weather History & Observations

Time (ADT) Temp. Heat Index Dew Point Humidity Pressure Visibility Wind Dir Wind Speed Gust Speed Precip Events Conditions
12:00 AM 71.6 °F - 68.0 °F 88% 29.95 in 9.0 mi SSE 6.9 mph - N/A   Overcast
1:00 AM 71.6 °F - 68.0 °F 88% 29.95 in 9.0 mi South 10.4 mph - N/A   Overcast
1:26 AM 71.6 °F - 68.0 °F 88% 29.94 in 9.0 mi South 8.1 mph - N/A   Overcast
1:30 AM 69.8 °F - 68.0 °F 94% 29.94 in 9.0 mi South 8.1 mph - N/A   Overcast
1:49 AM 69.8 °F - 68.0 °F 94% 29.94 in 9.0 mi South 8.1 mph - N/A   Mostly Cloudy
2:00 AM 69.8 °F - 68.0 °F 94% 29.93 in 9.0 mi South 5.8 mph - N/A   Mostly Cloudy
3:00 AM 69 °F - 66 °F 89% 29.92 in 10 mi South 9.2 mph - -   Overcast
3:00 AM 69.8 °F - 66.2 °F 88% 29.92 in 9.0 mi South 10.4 mph - N/A   Overcast
4:00 AM 68.0 °F - 66.2 °F 94% 29.92 in 9.0 mi South 5.8 mph - N/A   Overcast
5:00 AM 68.0 °F - 64.4 °F 88% 29.91 in 9.0 mi SSW 9.2 mph - N/A   Overcast
6:00 AM 66.2 °F - 64.4 °F 94% 29.87 in 9.0 mi SE 5.8 mph - N/A   Overcast
7:00 AM 66.2 °F - 64.4 °F 94% 29.91 in 9.0 mi South 6.9 mph - N/A   Overcast
8:00 AM 66.2 °F - 64.4 °F 94% 29.94 in 9.0 mi SSW 8.1 mph - N/A   Overcast
9:00 AM 70 °F - 64 °F 77% 29.95 in 10 mi South 10.4 mph - -   Overcast
9:00 AM 69.8 °F - 64.4 °F 83% 29.95 in 9.0 mi SSW 11.5 mph - N/A   Overcast
9:36 AM 69.8 °F - 64.4 °F 83% 29.97 in 9.0 mi SSW 10.4 mph - N/A   Overcast
10:00 AM 71.6 °F - 66.2 °F 83% 29.97 in 9.0 mi SW 11.5 mph - N/A   Overcast
11:00 AM 75.2 °F - 68.0 °F 78% 29.97 in 9.0 mi SSW 11.5 mph - N/A   Mostly Cloudy
11:19 AM 75.2 °F - 66.2 °F 73% 29.97 in 9.0 mi WSW 10.4 mph - N/A   Scattered Clouds
12:00 PM 77.0 °F - 68.0 °F 74% 29.97 in 9.0 mi WSW 5.8 mph - N/A   Mostly Cloudy
12:09 PM 78.8 °F - 66.2 °F 65% 29.97 in 9.0 mi SW 6.9 mph - N/A   Mostly Cloudy
12:13 PM 78.8 °F - 68.0 °F 69% 29.97 in 9.0 mi SW 6.9 mph - N/A   Mostly Cloudy
1:00 PM 80.6 °F 82.7 °F 66.2 °F 61% 29.95 in 9.0 mi SSW 8.1 mph - N/A   Partly Cloudy
2:00 PM 84.2 °F 86.6 °F 66.2 °F 55% 29.94 in 9.0 mi SSW 6.9 mph 17.3 mph N/A   Scattered Clouds
3:00 PM 82 °F - 66 °F 48% 29.94 in 10 mi West 8.1 mph - -  
3:00 PM 82.4 °F 84.6 °F 66.2 °F 58% 29.94 in 9.0 mi West 8.1 mph - N/A   Mostly Cloudy
4:00 PM 84.2 °F 86.6 °F 66.2 °F 55% 29.93 in 9.0 mi WSW 6.9 mph - N/A   Clear
5:00 PM 82.4 °F 84.6 °F 66.2 °F 58% 29.92 in 9.0 mi West 5.8 mph - N/A   Mostly Cloudy
6:00 PM 82.4 °F 85.4 °F 68.0 °F 62% 29.91 in 9.0 mi SSE 4.6 mph - N/A   Partly Cloudy
7:00 PM 78.8 °F - 68.0 °F 69% 29.90 in 9.0 mi NNW 8.1 mph - N/A   Partly Cloudy
8:00 PM 77.0 °F - 68.0 °F 74% 29.91 in 9.0 mi South 11.5 mph - N/A   Mostly Cloudy
8:08 PM 77.0 °F - 68.0 °F 74% 29.91 in 9.0 mi SSW 8.1 mph - N/A Thunderstorm Mostly Cloudy
8:29 PM 73.4 °F - 66.2 °F 78% 29.92 in 9.0 mi NNW 10.4 mph 17.3 mph N/A   Overcast
9:00 PM 72 °F - 66 °F 75% 29.92 in 10 mi NW 5.8 mph - -   Overcast
9:00 PM 71.6 °F - 66.2 °F 83% 29.92 in 9.0 mi WNW 3.5 mph - N/A   Overcast
9:15 PM 71.6 °F - 66.2 °F 83% 29.92 in 9.0 mi Calm Calm - N/A   Overcast
10:00 PM 69.8 °F - 66.2 °F 88% 29.92 in 9.0 mi NW 4.6 mph - N/A   Overcast
10:32 PM 69.8 °F - 66.2 °F 88% 29.91 in 9.0 mi NW 8.1 mph - N/A   Overcast
11:00 PM 69.8 °F - 66.2 °F 88% 29.90 in 9.0 mi North 6.9 mph - N/A   Overcast
11:09 PM 69.8 °F - 66.2 °F 88% 29.89 in 9.0 mi North 8.1 mph - N/A   Overcast
11:41 PM 69.8 °F - 66.2 °F 88% 29.87 in 9.0 mi North 4.6 mph - N/A   Overcast